Location: ????????
(60.4333°N, 46.4710°E)
Time: 19:49:35
(UTC+00:00)

CZ-2D R/B - Pass Details

Date: 25 November 2020
Orbit: 521 x 538 km, 97.4° (Epoch: 17 January)

Event Time Altitude Azimuth Distance (km) Brightness Sun altitude
Rises 14:12:30 0° 145° (SE) 2,657 6.6 -14.6°
Reaches altitude 10° 14:14:38 10° 139° (SE) 1,775 5.7 -14.9°
Maximum altitude 14:18:19 47° 66° (ENE) 713 3.4 -15.3°
Drops below altitude 10° 14:22:03 10° 352° (N) 1,797 5.9 -15.8°
Sets 14:24:14 0° 347° (NNW) 2,696 6.8 -16.0°
